<?xml version="1.0" encoding="UTF-8"?>
<gpx version="1.0" creator="http://thydzik.com" xmlns:xsi="http://www.w3.org/2001/XMLSchema-instance" xmlns="http://www.topografix.com/GPX/1/0" xsi:schemaLocation="http://www.topografix.com/GPX/1/0 http://www.topografix.com/GPX/1/0/gpx.xsd">
  <url></url>
  <time>2024-03-12T04:14:23Z</time>
  <trk>
    <name></name>
    <trkseg>
      <trkpt lat="40.7252953651912" lon="-3.88545307445617">
        <time>2024-03-12T04:14:23Z</time>
      </trkpt>
      <trkpt lat="40.7252164687373" lon="-3.88548050890821">
        <time>2024-03-12T04:14:23Z</time>
      </trkpt>
      <trkpt lat="40.7251124214827" lon="-3.88546014034258">
        <time>2024-03-12T04:14:23Z</time>
      </trkpt>
      <trkpt lat="40.7250549823138" lon="-3.8858680960676">
        <time>2024-03-12T04:14:23Z</time>
      </trkpt>
      <trkpt lat="40.7250069452221" lon="-3.88633213394189">
        <time>2024-03-12T04:14:23Z</time>
      </trkpt>
      <trkpt lat="40.7250434232288" lon="-3.88662754792916">
        <time>2024-03-12T04:14:23Z</time>
      </trkpt>
      <trkpt lat="40.7250000479361" lon="-3.88693312177639">
        <time>2024-03-12T04:14:23Z</time>
      </trkpt>
      <trkpt lat="40.7249527097517" lon="-3.88715733578701">
        <time>2024-03-12T04:14:23Z</time>
      </trkpt>
      <trkpt lat="40.7248721998821" lon="-3.88739459939431">
        <time>2024-03-12T04:14:23Z</time>
      </trkpt>
      <trkpt lat="40.7247712455286" lon="-3.88762109817068">
        <time>2024-03-12T04:14:23Z</time>
      </trkpt>
      <trkpt lat="40.7247474836083" lon="-3.88774519491484">
        <time>2024-03-12T04:14:23Z</time>
      </trkpt>
      <trkpt lat="40.72480289767" lon="-3.88782829373478">
        <time>2024-03-12T04:14:23Z</time>
      </trkpt>
      <trkpt lat="40.7247731363557" lon="-3.88789531044581">
        <time>2024-03-12T04:14:23Z</time>
      </trkpt>
      <trkpt lat="40.724747436734" lon="-3.88795317949364">
        <time>2024-03-12T04:14:23Z</time>
      </trkpt>
      <trkpt lat="40.7246089540632" lon="-3.88822941354839">
        <time>2024-03-12T04:14:23Z</time>
      </trkpt>
      <trkpt lat="40.724602589157" lon="-3.88824210775898">
        <time>2024-03-12T04:14:23Z</time>
      </trkpt>
      <trkpt lat="40.7244541602002" lon="-3.88855452823221">
        <time>2024-03-12T04:14:23Z</time>
      </trkpt>
      <trkpt lat="40.7243639067327" lon="-3.88875916557213">
        <time>2024-03-12T04:14:23Z</time>
      </trkpt>
      <trkpt lat="40.7243039349925" lon="-3.88889514164172">
        <time>2024-03-12T04:14:23Z</time>
      </trkpt>
      <trkpt lat="40.7241334446595" lon="-3.88929367578622">
        <time>2024-03-12T04:14:23Z</time>
      </trkpt>
      <trkpt lat="40.7240902734429" lon="-3.88942051021033">
        <time>2024-03-12T04:14:23Z</time>
      </trkpt>
      <trkpt lat="40.7239525112578" lon="-3.88989403155462">
        <time>2024-03-12T04:14:23Z</time>
      </trkpt>
      <trkpt lat="40.7239096015333" lon="-3.89007613357763">
        <time>2024-03-12T04:14:23Z</time>
      </trkpt>
      <trkpt lat="40.7238806243086" lon="-3.89043249182169">
        <time>2024-03-12T04:14:23Z</time>
      </trkpt>
      <trkpt lat="40.7238943445057" lon="-3.89072346631546">
        <time>2024-03-12T04:14:23Z</time>
      </trkpt>
      <trkpt lat="40.7239339312589" lon="-3.89106125263407">
        <time>2024-03-12T04:14:23Z</time>
      </trkpt>
      <trkpt lat="40.7239215743681" lon="-3.89133239351944">
        <time>2024-03-12T04:14:23Z</time>
      </trkpt>
      <trkpt lat="40.7238909616635" lon="-3.89158897407232">
        <time>2024-03-12T04:14:23Z</time>
      </trkpt>
      <trkpt lat="40.7238426705267" lon="-3.89180350209911">
        <time>2024-03-12T04:14:23Z</time>
      </trkpt>
      <trkpt lat="40.7237384802767" lon="-3.89234069135169">
        <time>2024-03-12T04:14:23Z</time>
      </trkpt>
      <trkpt lat="40.7236041231488" lon="-3.89286305162546">
        <time>2024-03-12T04:14:23Z</time>
      </trkpt>
      <trkpt lat="40.7235314827577" lon="-3.89326079292325">
        <time>2024-03-12T04:14:23Z</time>
      </trkpt>
      <trkpt lat="40.7235109267783" lon="-3.89341190871616">
        <time>2024-03-12T04:14:23Z</time>
      </trkpt>
      <trkpt lat="40.7234998407447" lon="-3.89351818356719">
        <time>2024-03-12T04:14:23Z</time>
      </trkpt>
      <trkpt lat="40.7234610460261" lon="-3.893962842776">
        <time>2024-03-12T04:14:23Z</time>
      </trkpt>
      <trkpt lat="40.7233877815222" lon="-3.89502908943537">
        <time>2024-03-12T04:14:23Z</time>
      </trkpt>
      <trkpt lat="40.723335357622" lon="-3.89605364367261">
        <time>2024-03-12T04:14:23Z</time>
      </trkpt>
      <trkpt lat="40.7233113634045" lon="-3.89679378462838">
        <time>2024-03-12T04:14:23Z</time>
      </trkpt>
      <trkpt lat="40.723302773641" lon="-3.89716539956662">
        <time>2024-03-12T04:14:23Z</time>
      </trkpt>
      <trkpt lat="40.7232897865559" lon="-3.89736907719247">
        <time>2024-03-12T04:14:23Z</time>
      </trkpt>
      <trkpt lat="40.7233019197387" lon="-3.89756859548493">
        <time>2024-03-12T04:14:23Z</time>
      </trkpt>
      <trkpt lat="40.7233142647172" lon="-3.89763571517259">
        <time>2024-03-12T04:14:23Z</time>
      </trkpt>
      <trkpt lat="40.7233183629809" lon="-3.89768212694239">
        <time>2024-03-12T04:14:23Z</time>
      </trkpt>
      <trkpt lat="40.7233265917301" lon="-3.8977360539203">
        <time>2024-03-12T04:14:23Z</time>
      </trkpt>
      <trkpt lat="40.7233683581943" lon="-3.89783874206531">
        <time>2024-03-12T04:14:23Z</time>
      </trkpt>
      <trkpt lat="40.7233778985763" lon="-3.89785722352239">
        <time>2024-03-12T04:14:23Z</time>
      </trkpt>
      <trkpt lat="40.7233978985078" lon="-3.89789183064414">
        <time>2024-03-12T04:14:23Z</time>
      </trkpt>
      <trkpt lat="40.723417949086" lon="-3.89791992602128">
        <time>2024-03-12T04:14:23Z</time>
      </trkpt>
      <trkpt lat="40.7234380848553" lon="-3.8979370698068">
        <time>2024-03-12T04:14:23Z</time>
      </trkpt>
      <trkpt lat="40.723477676213" lon="-3.89797194030809">
        <time>2024-03-12T04:14:23Z</time>
      </trkpt>
      <trkpt lat="40.7235432290911" lon="-3.89800844217109">
        <time>2024-03-12T04:14:23Z</time>
      </trkpt>
      <trkpt lat="40.7236049748998" lon="-3.89796841528787">
        <time>2024-03-12T04:14:23Z</time>
      </trkpt>
      <trkpt lat="40.7236189826038" lon="-3.89795933454792">
        <time>2024-03-12T04:14:23Z</time>
      </trkpt>
      <trkpt lat="40.7236198838206" lon="-3.89795928745665">
        <time>2024-03-12T04:14:23Z</time>
      </trkpt>
      <trkpt lat="40.723642839291" lon="-3.89796137212146">
        <time>2024-03-12T04:14:23Z</time>
      </trkpt>
      <trkpt lat="40.7236702871246" lon="-3.89795919525626">
        <time>2024-03-12T04:14:23Z</time>
      </trkpt>
      <trkpt lat="40.7236932425947" lon="-3.89796127992291">
        <time>2024-03-12T04:14:23Z</time>
      </trkpt>
      <trkpt lat="40.7237158231202" lon="-3.89795945206653">
        <time>2024-03-12T04:14:23Z</time>
      </trkpt>
      <trkpt lat="40.7237454339593" lon="-3.89796873070972">
        <time>2024-03-12T04:14:23Z</time>
      </trkpt>
      <trkpt lat="40.7237764824192" lon="-3.8979727002909">
        <time>2024-03-12T04:14:23Z</time>
      </trkpt>
      <trkpt lat="40.7237867964231" lon="-3.89797592110108">
        <time>2024-03-12T04:14:23Z</time>
      </trkpt>
      <trkpt lat="40.7238094634937" lon="-3.89798300112119">
        <time>2024-03-12T04:14:23Z</time>
      </trkpt>
      <trkpt lat="40.723820244936" lon="-3.8979866983006">
        <time>2024-03-12T04:14:23Z</time>
      </trkpt>
      <trkpt lat="40.7238400109131" lon="-3.89799347646601">
        <time>2024-03-12T04:14:23Z</time>
      </trkpt>
      <trkpt lat="40.7238729919852" lon="-3.8980037773169">
        <time>2024-03-12T04:14:23Z</time>
      </trkpt>
      <trkpt lat="40.723877636985" lon="-3.89800537077989">
        <time>2024-03-12T04:14:23Z</time>
      </trkpt>
      <trkpt lat="40.7239161177499" lon="-3.89801856607001">
        <time>2024-03-12T04:14:23Z</time>
      </trkpt>
      <trkpt lat="40.7239373713542" lon="-3.89802518663795">
        <time>2024-03-12T04:14:23Z</time>
      </trkpt>
      <trkpt lat="40.7239791045282" lon="-3.89804528511035">
        <time>2024-03-12T04:14:23Z</time>
      </trkpt>
      <trkpt lat="40.724016798113" lon="-3.89806355316876">
        <time>2024-03-12T04:14:23Z</time>
      </trkpt>
      <trkpt lat="40.7240547990001" lon="-3.89807705940725">
        <time>2024-03-12T04:14:23Z</time>
      </trkpt>
      <trkpt lat="40.7240918327238" lon="-3.89809040464844">
        <time>2024-03-12T04:14:23Z</time>
      </trkpt>
      <trkpt lat="40.7241288664456" lon="-3.89810374990478">
        <time>2024-03-12T04:14:23Z</time>
      </trkpt>
      <trkpt lat="40.7241668673268" lon="-3.89811725618988">
        <time>2024-03-12T04:14:23Z</time>
      </trkpt>
      <trkpt lat="40.7241799383219" lon="-3.89812193146674">
        <time>2024-03-12T04:14:23Z</time>
      </trkpt>
      <trkpt lat="40.7241906292223" lon="-3.8981256866777">
        <time>2024-03-12T04:14:23Z</time>
      </trkpt>
      <trkpt lat="40.7242209924159" lon="-3.89814050175161">
        <time>2024-03-12T04:14:23Z</time>
      </trkpt>
      <trkpt lat="40.7242516549305" lon="-3.8981555174232">
        <time>2024-03-12T04:14:23Z</time>
      </trkpt>
      <trkpt lat="40.7242820181197" lon="-3.89817033252464">
        <time>2024-03-12T04:14:23Z</time>
      </trkpt>
      <trkpt lat="40.7243126806298" lon="-3.89818534822407">
        <time>2024-03-12T04:14:23Z</time>
      </trkpt>
      <trkpt lat="40.7243430438145" lon="-3.89820016335305">
        <time>2024-03-12T04:14:23Z</time>
      </trkpt>
      <trkpt lat="40.7243737063201" lon="-3.89821517908033">
        <time>2024-03-12T04:14:23Z</time>
      </trkpt>
      <trkpt lat="40.724415490131" lon="-3.89822876594512">
        <time>2024-03-12T04:14:23Z</time>
      </trkpt>
      <trkpt lat="40.7244586250739" lon="-3.89824237099376">
        <time>2024-03-12T04:14:23Z</time>
      </trkpt>
      <trkpt lat="40.7244937223145" lon="-3.89824698723806">
        <time>2024-03-12T04:14:23Z</time>
      </trkpt>
      <trkpt lat="40.7245310668379" lon="-3.89825222575378">
        <time>2024-03-12T04:14:23Z</time>
      </trkpt>
      <trkpt lat="40.7245518509194" lon="-3.89824972256833">
        <time>2024-03-12T04:14:23Z</time>
      </trkpt>
      <trkpt lat="40.7245729921263" lon="-3.89824705367254">
        <time>2024-03-12T04:14:23Z</time>
      </trkpt>
      <trkpt lat="40.7245730417231" lon="-3.89824704723478">
        <time>2024-03-12T04:14:23Z</time>
      </trkpt>
      <trkpt lat="40.7245869736082" lon="-3.89824528078711">
        <time>2024-03-12T04:14:23Z</time>
      </trkpt>
      <trkpt lat="40.7245995980147" lon="-3.8982436743745">
        <time>2024-03-12T04:14:23Z</time>
      </trkpt>
      <trkpt lat="40.7246387762986" lon="-3.89824479319399">
        <time>2024-03-12T04:14:23Z</time>
      </trkpt>
      <trkpt lat="40.724676603448" lon="-3.89824589384858">
        <time>2024-03-12T04:14:23Z</time>
      </trkpt>
      <trkpt lat="40.7247205486076" lon="-3.89825181318129">
        <time>2024-03-12T04:14:23Z</time>
      </trkpt>
      <trkpt lat="40.724764045828" lon="-3.89825752875393">
        <time>2024-03-12T04:14:23Z</time>
      </trkpt>
      <trkpt lat="40.7248079909861" lon="-3.89826344810307">
        <time>2024-03-12T04:14:23Z</time>
      </trkpt>
      <trkpt lat="40.7248514872951" lon="-3.89826916486367">
        <time>2024-03-12T04:14:23Z</time>
      </trkpt>
      <trkpt lat="40.7248949845134" lon="-3.89827488046035">
        <time>2024-03-12T04:14:23Z</time>
      </trkpt>
      <trkpt lat="40.7249389296695" lon="-3.89828079983406">
        <time>2024-03-12T04:14:23Z</time>
      </trkpt>
      <trkpt lat="40.7249807170987" lon="-3.89829102640923">
        <time>2024-03-12T04:14:23Z</time>
      </trkpt>
      <trkpt lat="40.7250234256085" lon="-3.898301547201">
        <time>2024-03-12T04:14:23Z</time>
      </trkpt>
      <trkpt lat="40.7250652130258" lon="-3.89831177498699">
        <time>2024-03-12T04:14:23Z</time>
      </trkpt>
      <trkpt lat="40.7251079215328" lon="-3.89832229580629">
        <time>2024-03-12T04:14:23Z</time>
      </trkpt>
      <trkpt lat="40.7251497089566" lon="-3.89833252243514">
        <time>2024-03-12T04:14:23Z</time>
      </trkpt>
      <trkpt lat="40.7251924174608" lon="-3.89834304328196">
        <time>2024-03-12T04:14:23Z</time>
      </trkpt>
      <trkpt lat="40.7252342048727" lon="-3.89835327112164">
        <time>2024-03-12T04:14:23Z</time>
      </trkpt>
      <trkpt lat="40.7252769133741" lon="-3.89836379199599">
        <time>2024-03-12T04:14:23Z</time>
      </trkpt>
      <trkpt lat="40.7252912996669" lon="-3.89836730097603">
        <time>2024-03-12T04:14:23Z</time>
      </trkpt>
      <trkpt lat="40.7253340081665" lon="-3.89837782186898">
        <time>2024-03-12T04:14:23Z</time>
      </trkpt>
      <trkpt lat="40.7253651185692" lon="-3.89838540413381">
        <time>2024-03-12T04:14:23Z</time>
      </trkpt>
      <trkpt lat="40.7253930443078" lon="-3.89838548364715">
        <time>2024-03-12T04:14:23Z</time>
      </trkpt>
      <trkpt lat="40.7254202944793" lon="-3.89838555407579">
        <time>2024-03-12T04:14:23Z</time>
      </trkpt>
      <trkpt lat="40.7254475446506" lon="-3.89838562450469">
        <time>2024-03-12T04:14:23Z</time>
      </trkpt>
      <trkpt lat="40.7254754703888" lon="-3.89838570401885">
        <time>2024-03-12T04:14:23Z</time>
      </trkpt>
      <trkpt lat="40.7255065848698" lon="-3.89838118822471">
        <time>2024-03-12T04:14:23Z</time>
      </trkpt>
      <trkpt lat="40.7255375489151" lon="-3.89837667158771">
        <time>2024-03-12T04:14:23Z</time>
      </trkpt>
      <trkpt lat="40.7255686633955" lon="-3.89837215578568">
        <time>2024-03-12T04:14:23Z</time>
      </trkpt>
      <trkpt lat="40.7255996283502" lon="-3.89836763796893">
        <time>2024-03-12T04:14:23Z</time>
      </trkpt>
      <trkpt lat="40.7256307428208" lon="-3.89836312334302">
        <time>2024-03-12T04:14:23Z</time>
      </trkpt>
      <trkpt lat="40.7256617068741" lon="-3.89835860550629">
        <time>2024-03-12T04:14:23Z</time>
      </trkpt>
      <trkpt lat="40.725695935599" lon="-3.89835906580171">
        <time>2024-03-12T04:14:23Z</time>
      </trkpt>
      <trkpt lat="40.7257319658355" lon="-3.89835955032406">
        <time>2024-03-12T04:14:23Z</time>
      </trkpt>
      <trkpt lat="40.7257712704002" lon="-3.89836562412657">
        <time>2024-03-12T04:14:23Z</time>
      </trkpt>
      <trkpt lat="40.7258144513907" lon="-3.89837330955715">
        <time>2024-03-12T04:14:23Z</time>
      </trkpt>
      <trkpt lat="40.7258318074463" lon="-3.89837639906684">
        <time>2024-03-12T04:14:23Z</time>
      </trkpt>
      <trkpt lat="40.7258711120093" lon="-3.89838247288941">
        <time>2024-03-12T04:14:23Z</time>
      </trkpt>
      <trkpt lat="40.7258969378343" lon="-3.89838707002216">
        <time>2024-03-12T04:14:23Z</time>
      </trkpt>
      <trkpt lat="40.7259362423961" lon="-3.89839314385761">
        <time>2024-03-12T04:14:23Z</time>
      </trkpt>
      <trkpt lat="40.7259441932709" lon="-3.8983939577063">
        <time>2024-03-12T04:14:23Z</time>
      </trkpt>
      <trkpt lat="40.7259695473238" lon="-3.89839655206751">
        <time>2024-03-12T04:14:23Z</time>
      </trkpt>
      <trkpt lat="40.7260010169313" lon="-3.89840138615442">
        <time>2024-03-12T04:14:23Z</time>
      </trkpt>
      <trkpt lat="40.7260325088268" lon="-3.89840625014907">
        <time>2024-03-12T04:14:23Z</time>
      </trkpt>
      <trkpt lat="40.7260639784335" lon="-3.89841108424563">
        <time>2024-03-12T04:14:23Z</time>
      </trkpt>
      <trkpt lat="40.7260954703282" lon="-3.89841594824997">
        <time>2024-03-12T04:14:23Z</time>
      </trkpt>
      <trkpt lat="40.7261248077667" lon="-3.89842759202654">
        <time>2024-03-12T04:14:23Z</time>
      </trkpt>
      <trkpt lat="40.7261536939253" lon="-3.89843922974428">
        <time>2024-03-12T04:14:23Z</time>
      </trkpt>
      <trkpt lat="40.726183031361" lon="-3.89845087354165">
        <time>2024-03-12T04:14:23Z</time>
      </trkpt>
      <trkpt lat="40.7262119184174" lon="-3.89846251129211">
        <time>2024-03-12T04:14:23Z</time>
      </trkpt>
      <trkpt lat="40.7262412549496" lon="-3.89847415509816">
        <time>2024-03-12T04:14:23Z</time>
      </trkpt>
      <trkpt lat="40.7262701420031" lon="-3.89848579286927">
        <time>2024-03-12T04:14:23Z</time>
      </trkpt>
      <trkpt lat="40.7262979571354" lon="-3.89850008053062">
        <time>2024-03-12T04:14:23Z</time>
      </trkpt>
      <trkpt lat="40.7263251013072" lon="-3.89851376711318">
        <time>2024-03-12T04:14:23Z</time>
      </trkpt>
      <trkpt lat="40.7263522454772" lon="-3.89852745370702">
        <time>2024-03-12T04:14:23Z</time>
      </trkpt>
      <trkpt lat="40.7263800606035" lon="-3.89854174140381">
        <time>2024-03-12T04:14:23Z</time>
      </trkpt>
      <trkpt lat="40.7264031375427" lon="-3.89855714951368">
        <time>2024-03-12T04:14:23Z</time>
      </trkpt>
      <trkpt lat="40.7264262121751" lon="-3.89857285363689">
        <time>2024-03-12T04:14:23Z</time>
      </trkpt>
      <trkpt lat="40.7264492891096" lon="-3.89858826176836">
        <time>2024-03-12T04:14:23Z</time>
      </trkpt>
      <trkpt lat="40.7264723637374" lon="-3.89860396591339">
        <time>2024-03-12T04:14:23Z</time>
      </trkpt>
      <trkpt lat="40.7265034965166" lon="-3.89861642381045">
        <time>2024-03-12T04:14:23Z</time>
      </trkpt>
      <trkpt lat="40.726534179555" lon="-3.89862867791867">
        <time>2024-03-12T04:14:23Z</time>
      </trkpt>
      <trkpt lat="40.7265608175903" lon="-3.8986393358778">
        <time>2024-03-12T04:14:23Z</time>
      </trkpt>
      <trkpt lat="40.7265653123401" lon="-3.89864113465526">
        <time>2024-03-12T04:14:23Z</time>
      </trkpt>
      <trkpt lat="40.726595996276" lon="-3.89865338879876">
        <time>2024-03-12T04:14:23Z</time>
      </trkpt>
      <trkpt lat="40.726627128148" lon="-3.89866584673075">
        <time>2024-03-12T04:14:23Z</time>
      </trkpt>
      <trkpt lat="40.7266578120807" lon="-3.89867810089742">
        <time>2024-03-12T04:14:23Z</time>
      </trkpt>
      <trkpt lat="40.7266815945275" lon="-3.8986896701599">
        <time>2024-03-12T04:14:23Z</time>
      </trkpt>
      <trkpt lat="40.726704703711" lon="-3.89870093433836">
        <time>2024-03-12T04:14:23Z</time>
      </trkpt>
      <trkpt lat="40.7267278128931" lon="-3.89871219852474">
        <time>2024-03-12T04:14:23Z</time>
      </trkpt>
      <trkpt lat="40.726751595336" lon="-3.89872376781188">
        <time>2024-03-12T04:14:23Z</time>
      </trkpt>
      <trkpt lat="40.7267760555118" lon="-3.89874085247929">
        <time>2024-03-12T04:14:23Z</time>
      </trkpt>
      <trkpt lat="40.7268145851742" lon="-3.89876742196144">
        <time>2024-03-12T04:14:23Z</time>
      </trkpt>
      <trkpt lat="40.7268281142093" lon="-3.89877689949609">
        <time>2024-03-12T04:14:23Z</time>
      </trkpt>
      <trkpt lat="40.7268671797059" lon="-3.89880406830094">
        <time>2024-03-12T04:14:23Z</time>
      </trkpt>
      <trkpt lat="40.7269057093524" lon="-3.89883063785649">
        <time>2024-03-12T04:14:23Z</time>
      </trkpt>
      <trkpt lat="40.7269359776119" lon="-3.89884513643168">
        <time>2024-03-12T04:14:23Z</time>
      </trkpt>
      <trkpt lat="40.7269697452156" lon="-3.898861428719">
        <time>2024-03-12T04:14:23Z</time>
      </trkpt>
      <trkpt lat="40.7270000134706" lon="-3.8988759273225">
        <time>2024-03-12T04:14:23Z</time>
      </trkpt>
      <trkpt lat="40.7270337810692" lon="-3.89889221964151">
        <time>2024-03-12T04:14:23Z</time>
      </trkpt>
      <trkpt lat="40.7270710503159" lon="-3.89891000967596">
        <time>2024-03-12T04:14:23Z</time>
      </trkpt>
      <trkpt lat="40.7271048179089" lon="-3.8989263020301">
        <time>2024-03-12T04:14:23Z</time>
      </trkpt>
      <trkpt lat="40.7271420871495" lon="-3.89894409210312">
        <time>2024-03-12T04:14:23Z</time>
      </trkpt>
      <trkpt lat="40.7271758547369" lon="-3.89896038449237">
        <time>2024-03-12T04:14:23Z</time>
      </trkpt>
      <trkpt lat="40.7271897761838" lon="-3.89897152520661">
        <time>2024-03-12T04:14:23Z</time>
      </trkpt>
      <trkpt lat="40.7272179793761" lon="-3.89899381149805">
        <time>2024-03-12T04:14:23Z</time>
      </trkpt>
      <trkpt lat="40.7272327068883" lon="-3.89900555514884">
        <time>2024-03-12T04:14:23Z</time>
      </trkpt>
      <trkpt lat="40.7272357105859" lon="-3.89900737179589">
        <time>2024-03-12T04:14:23Z</time>
      </trkpt>
      <trkpt lat="40.7272617172167" lon="-3.89902252366063">
        <time>2024-03-12T04:14:23Z</time>
      </trkpt>
      <trkpt lat="40.7272829232484" lon="-3.89903524262902">
        <time>2024-03-12T04:14:23Z</time>
      </trkpt>
      <trkpt lat="40.7272933841405" lon="-3.89903729581913">
        <time>2024-03-12T04:14:23Z</time>
      </trkpt>
      <trkpt lat="40.7273233996046" lon="-3.89904318832105">
        <time>2024-03-12T04:14:23Z</time>
      </trkpt>
      <trkpt lat="40.727362529438" lon="-3.89905052382507">
        <time>2024-03-12T04:14:23Z</time>
      </trkpt>
      <trkpt lat="40.727396587141" lon="-3.89905720965427">
        <time>2024-03-12T04:14:23Z</time>
      </trkpt>
      <trkpt lat="40.7274030057923" lon="-3.89905846953668">
        <time>2024-03-12T04:14:23Z</time>
      </trkpt>
      <trkpt lat="40.727442135624" lon="-3.89906580505923">
        <time>2024-03-12T04:14:23Z</time>
      </trkpt>
      <trkpt lat="40.7274799581306" lon="-3.89906749826818">
        <time>2024-03-12T04:14:23Z</time>
      </trkpt>
      <trkpt lat="40.7275156330638" lon="-3.89906906902681">
        <time>2024-03-12T04:14:23Z</time>
      </trkpt>
      <trkpt lat="40.7275186813923" lon="-3.89906920360285">
        <time>2024-03-12T04:14:23Z</time>
      </trkpt>
      <trkpt lat="40.7275370730953" lon="-3.89907892437226">
        <time>2024-03-12T04:14:23Z</time>
      </trkpt>
      <trkpt lat="40.7275514252325" lon="-3.89908681454524">
        <time>2024-03-12T04:14:23Z</time>
      </trkpt>
      <trkpt lat="40.7275710942807" lon="-3.89910602575441">
        <time>2024-03-12T04:14:23Z</time>
      </trkpt>
      <trkpt lat="40.7275903175596" lon="-3.8991246388974">
        <time>2024-03-12T04:14:23Z</time>
      </trkpt>
      <trkpt lat="40.7276087000338" lon="-3.89913554372395">
        <time>2024-03-12T04:14:23Z</time>
      </trkpt>
      <trkpt lat="40.727624839842" lon="-3.89914523421389">
        <time>2024-03-12T04:14:23Z</time>
      </trkpt>
      <trkpt lat="40.7276603859266" lon="-3.89916160997441">
        <time>2024-03-12T04:14:23Z</time>
      </trkpt>
      <trkpt lat="40.7277008906952" lon="-3.89918036160698">
        <time>2024-03-12T04:14:23Z</time>
      </trkpt>
      <trkpt lat="40.7277021581435" lon="-3.89918094587917">
        <time>2024-03-12T04:14:23Z</time>
      </trkpt>
      <trkpt lat="40.727736436774" lon="-3.89919673740548">
        <time>2024-03-12T04:14:23Z</time>
      </trkpt>
      <trkpt lat="40.7277769415359" lon="-3.89921548908143">
        <time>2024-03-12T04:14:23Z</time>
      </trkpt>
      <trkpt lat="40.7278075507506" lon="-3.89922957816144">
        <time>2024-03-12T04:14:23Z</time>
      </trkpt>
      <trkpt lat="40.7278480555062" lon="-3.89924832987795">
        <time>2024-03-12T04:14:23Z</time>
      </trkpt>
      <trkpt lat="40.7278786647162" lon="-3.89926241898853">
        <time>2024-03-12T04:14:23Z</time>
      </trkpt>
      <trkpt lat="40.7279191694655" lon="-3.89928117074561">
        <time>2024-03-12T04:14:23Z</time>
      </trkpt>
      <trkpt lat="40.7279497786708" lon="-3.89929525988675">
        <time>2024-03-12T04:14:23Z</time>
      </trkpt>
      <trkpt lat="40.7279820444174" lon="-3.89931641710666">
        <time>2024-03-12T04:14:23Z</time>
      </trkpt>
      <trkpt lat="40.728015210915" lon="-3.89933758647446">
        <time>2024-03-12T04:14:23Z</time>
      </trkpt>
      <trkpt lat="40.7280489062065" lon="-3.8993486975964">
        <time>2024-03-12T04:14:23Z</time>
      </trkpt>
      <trkpt lat="40.7280819282366" lon="-3.8993595036243">
        <time>2024-03-12T04:14:23Z</time>
      </trkpt>
      <trkpt lat="40.7281156235253" lon="-3.89937061476899">
        <time>2024-03-12T04:14:23Z</time>
      </trkpt>
      <trkpt lat="40.7281486455528" lon="-3.89938142081908">
        <time>2024-03-12T04:14:23Z</time>
      </trkpt>
      <trkpt lat="40.7281901763155" lon="-3.89939855831398">
        <time>2024-03-12T04:14:23Z</time>
      </trkpt>
      <trkpt lat="40.728231707075" lon="-3.89941569583061">
        <time>2024-03-12T04:14:23Z</time>
      </trkpt>
      <trkpt lat="40.7282732378315" lon="-3.89943283336898">
        <time>2024-03-12T04:14:23Z</time>
      </trkpt>
      <trkpt lat="40.728314768585" lon="-3.89944997092908">
        <time>2024-03-12T04:14:23Z</time>
      </trkpt>
      <trkpt lat="40.7283534960968" lon="-3.89946268934032">
        <time>2024-03-12T04:14:23Z</time>
      </trkpt>
      <trkpt lat="40.7283924028351" lon="-3.89947552859704">
        <time>2024-03-12T04:14:23Z</time>
      </trkpt>
      <trkpt lat="40.7284311303433" lon="-3.89948824703865">
        <time>2024-03-12T04:14:23Z</time>
      </trkpt>
      <trkpt lat="40.728470037078" lon="-3.89950108632595">
        <time>2024-03-12T04:14:23Z</time>
      </trkpt>
      <trkpt lat="40.7285087645825" lon="-3.89951380479792">
        <time>2024-03-12T04:14:23Z</time>
      </trkpt>
      <trkpt lat="40.7285476713135" lon="-3.8995266441158">
        <time>2024-03-12T04:14:23Z</time>
      </trkpt>
      <trkpt lat="40.7285863988144" lon="-3.89953936261816">
        <time>2024-03-12T04:14:23Z</time>
      </trkpt>
      <trkpt lat="40.7286253055417" lon="-3.89955220196662">
        <time>2024-03-12T04:14:23Z</time>
      </trkpt>
      <trkpt lat="40.728664033039" lon="-3.89956492049935">
        <time>2024-03-12T04:14:23Z</time>
      </trkpt>
      <trkpt lat="40.7287029397626" lon="-3.8995777598784">
        <time>2024-03-12T04:14:23Z</time>
      </trkpt>
      <trkpt lat="40.7287316554929" lon="-3.89959206066183">
        <time>2024-03-12T04:14:23Z</time>
      </trkpt>
      <trkpt lat="40.7287599208435" lon="-3.89960635539216">
        <time>2024-03-12T04:14:23Z</time>
      </trkpt>
      <trkpt lat="40.7287881861922" lon="-3.89962065013477">
        <time>2024-03-12T04:14:23Z</time>
      </trkpt>
      <trkpt lat="40.7288169019163" lon="-3.89963495095548">
        <time>2024-03-12T04:14:23Z</time>
      </trkpt>
      <trkpt lat="40.7288494798452" lon="-3.89965453431789">
        <time>2024-03-12T04:14:23Z</time>
      </trkpt>
      <trkpt lat="40.7288813105239" lon="-3.89967371211967">
        <time>2024-03-12T04:14:23Z</time>
      </trkpt>
      <trkpt lat="40.728913141199" lon="-3.89969288993995">
        <time>2024-03-12T04:14:23Z</time>
      </trkpt>
      <trkpt lat="40.7289457200177" lon="-3.89971247337165">
        <time>2024-03-12T04:14:23Z</time>
      </trkpt>
      <trkpt lat="40.7289775506856" lon="-3.89973165122934">
        <time>2024-03-12T04:14:23Z</time>
      </trkpt>
      <trkpt lat="40.7290101285962" lon="-3.89975123468716">
        <time>2024-03-12T04:14:23Z</time>
      </trkpt>
      <trkpt lat="40.7290320171035" lon="-3.89977462104785">
        <time>2024-03-12T04:14:23Z</time>
      </trkpt>
      <trkpt lat="40.7290534598437" lon="-3.89979740932868">
        <time>2024-03-12T04:14:23Z</time>
      </trkpt>
      <trkpt lat="40.7290753483413" lon="-3.89982079571977">
        <time>2024-03-12T04:14:23Z</time>
      </trkpt>
      <trkpt lat="40.7290967910719" lon="-3.8998435840303">
        <time>2024-03-12T04:14:23Z</time>
      </trkpt>
      <trkpt lat="40.7292379965217" lon="-3.89985794951536">
        <time>2024-03-12T04:14:23Z</time>
      </trkpt>
      <trkpt lat="40.7292835366251" lon="-3.89986755730005">
        <time>2024-03-12T04:14:23Z</time>
      </trkpt>
      <trkpt lat="40.7293691738529" lon="-3.89988840394061">
        <time>2024-03-12T04:14:23Z</time>
      </trkpt>
      <trkpt lat="40.729369179276" lon="-3.8998884016453">
        <time>2024-03-12T04:14:23Z</time>
      </trkpt>
      <trkpt lat="40.7294056881551" lon="-3.89987012650587">
        <time>2024-03-12T04:14:23Z</time>
      </trkpt>
      <trkpt lat="40.729437403696" lon="-3.89986362628099">
        <time>2024-03-12T04:14:23Z</time>
      </trkpt>
      <trkpt lat="40.7294632773859" lon="-3.89985826114244">
        <time>2024-03-12T04:14:23Z</time>
      </trkpt>
      <trkpt lat="40.7294997916831" lon="-3.89983998366632">
        <time>2024-03-12T04:14:23Z</time>
      </trkpt>
      <trkpt lat="40.7295256653718" lon="-3.89983461851402">
        <time>2024-03-12T04:14:23Z</time>
      </trkpt>
      <trkpt lat="40.7295259057019" lon="-3.89983452820069">
        <time>2024-03-12T04:14:23Z</time>
      </trkpt>
      <trkpt lat="40.7295673612169" lon="-3.89981901602884">
        <time>2024-03-12T04:14:23Z</time>
      </trkpt>
      <trkpt lat="40.7296016822143" lon="-3.89980763647296">
        <time>2024-03-12T04:14:23Z</time>
      </trkpt>
      <trkpt lat="40.7296433780556" lon="-3.89979203395398">
        <time>2024-03-12T04:14:23Z</time>
      </trkpt>
      <trkpt lat="40.7296776990501" lon="-3.89978065437194">
        <time>2024-03-12T04:14:23Z</time>
      </trkpt>
      <trkpt lat="40.7296992964005" lon="-3.89977609840691">
        <time>2024-03-12T04:14:23Z</time>
      </trkpt>
      <trkpt lat="40.7297156872933" lon="-3.89977263991834">
        <time>2024-03-12T04:14:23Z</time>
      </trkpt>
      <trkpt lat="40.7297539924153" lon="-3.89976442249074">
        <time>2024-03-12T04:14:23Z</time>
      </trkpt>
      <trkpt lat="40.729797936716" lon="-3.8997550672178">
        <time>2024-03-12T04:14:23Z</time>
      </trkpt>
      <trkpt lat="40.7298362418364" lon="-3.89974684977083">
        <time>2024-03-12T04:14:23Z</time>
      </trkpt>
      <trkpt lat="40.7298684817642" lon="-3.89973952757611">
        <time>2024-03-12T04:14:23Z</time>
      </trkpt>
      <trkpt lat="40.7299124260624" lon="-3.89973017227209">
        <time>2024-03-12T04:14:23Z</time>
      </trkpt>
      <trkpt lat="40.729944665989" lon="-3.89972285006162">
        <time>2024-03-12T04:14:23Z</time>
      </trkpt>
      <trkpt lat="40.7299854128998" lon="-3.89969989260721">
        <time>2024-03-12T04:14:23Z</time>
      </trkpt>
      <trkpt lat="40.7300237257318" lon="-3.89967334974511">
        <time>2024-03-12T04:14:23Z</time>
      </trkpt>
      <trkpt lat="40.7300644735336" lon="-3.89965039224617">
        <time>2024-03-12T04:14:23Z</time>
      </trkpt>
      <trkpt lat="40.7300838392129" lon="-3.89963916635154">
        <time>2024-03-12T04:14:23Z</time>
      </trkpt>
      <trkpt lat="40.7301014099327" lon="-3.89963863328031">
        <time>2024-03-12T04:14:23Z</time>
      </trkpt>
      <trkpt lat="40.7301421568268" lon="-3.89961567572208">
        <time>2024-03-12T04:14:23Z</time>
      </trkpt>
      <trkpt lat="40.7301784274396" lon="-3.89961421030476">
        <time>2024-03-12T04:14:23Z</time>
      </trkpt>
      <trkpt lat="40.7302014552468" lon="-3.89960122779717">
        <time>2024-03-12T04:14:23Z</time>
      </trkpt>
      <trkpt lat="40.7302425078883" lon="-3.89959301761587">
        <time>2024-03-12T04:14:23Z</time>
      </trkpt>
      <trkpt lat="40.7302655356931" lon="-3.89958003508888">
        <time>2024-03-12T04:14:23Z</time>
      </trkpt>
      <trkpt lat="40.7302889321525" lon="-3.8995717647244">
        <time>2024-03-12T04:14:23Z</time>
      </trkpt>
      <trkpt lat="40.7303307821856" lon="-3.89955752581607">
        <time>2024-03-12T04:14:23Z</time>
      </trkpt>
      <trkpt lat="40.73036790324" lon="-3.89953363114791">
        <time>2024-03-12T04:14:23Z</time>
      </trkpt>
      <trkpt lat="40.7303876060379" lon="-3.89951382422668">
        <time>2024-03-12T04:14:23Z</time>
      </trkpt>
      <trkpt lat="40.7304294569645" lon="-3.89949958527413">
        <time>2024-03-12T04:14:23Z</time>
      </trkpt>
      <trkpt lat="40.7304533874844" lon="-3.89947480238382">
        <time>2024-03-12T04:14:23Z</time>
      </trkpt>
      <trkpt lat="40.7304952375054" lon="-3.89946056338133">
        <time>2024-03-12T04:14:23Z</time>
      </trkpt>
      <trkpt lat="40.7305195935898" lon="-3.89945052956019">
        <time>2024-03-12T04:14:23Z</time>
      </trkpt>
      <trkpt lat="40.7305527553654" lon="-3.89943380511735">
        <time>2024-03-12T04:14:23Z</time>
      </trkpt>
      <trkpt lat="40.730584899876" lon="-3.89942034366369">
        <time>2024-03-12T04:14:23Z</time>
      </trkpt>
      <trkpt lat="40.7306180616472" lon="-3.89940361919002">
        <time>2024-03-12T04:14:23Z</time>
      </trkpt>
      <trkpt lat="40.7306502070643" lon="-3.89939015653723">
        <time>2024-03-12T04:14:23Z</time>
      </trkpt>
      <trkpt lat="40.7306823515698" lon="-3.8993766950437">
        <time>2024-03-12T04:14:23Z</time>
      </trkpt>
      <trkpt lat="40.7307155133345" lon="-3.89935997052471">
        <time>2024-03-12T04:14:23Z</time>
      </trkpt>
      <trkpt lat="40.7307155250904" lon="-3.89935996476196">
        <time>2024-03-12T04:14:23Z</time>
      </trkpt>
      <trkpt lat="40.7307236524211" lon="-3.89935593538075">
        <time>2024-03-12T04:14:23Z</time>
      </trkpt>
      <trkpt lat="40.7307525027279" lon="-3.89935007713608">
        <time>2024-03-12T04:14:23Z</time>
      </trkpt>
      <trkpt lat="40.7307945046997" lon="-3.89933564227761">
        <time>2024-03-12T04:14:23Z</time>
      </trkpt>
      <trkpt lat="40.7308233550052" lon="-3.89932978401849">
        <time>2024-03-12T04:14:23Z</time>
      </trkpt>
      <trkpt lat="40.7308501653191" lon="-3.89932271407416">
        <time>2024-03-12T04:14:23Z</time>
      </trkpt>
      <trkpt lat="40.730892167278" lon="-3.89930828036252">
        <time>2024-03-12T04:14:23Z</time>
      </trkpt>
      <trkpt lat="40.7309189775905" lon="-3.89930121040275">
        <time>2024-03-12T04:14:23Z</time>
      </trkpt>
      <trkpt lat="40.7309609795557" lon="-3.89928677547937">
        <time>2024-03-12T04:14:23Z</time>
      </trkpt>
      <trkpt lat="40.7309916306977" lon="-3.89927235587115">
        <time>2024-03-12T04:14:23Z</time>
      </trkpt>
      <trkpt lat="40.7310208230382" lon="-3.89925439356702">
        <time>2024-03-12T04:14:23Z</time>
      </trkpt>
      <trkpt lat="40.7310514741761" lon="-3.89923997393143">
        <time>2024-03-12T04:14:23Z</time>
      </trkpt>
      <trkpt lat="40.7310806665116" lon="-3.89922201159743">
        <time>2024-03-12T04:14:23Z</time>
      </trkpt>
      <trkpt lat="40.7311160601493" lon="-3.89920013600116">
        <time>2024-03-12T04:14:23Z</time>
      </trkpt>
      <trkpt lat="40.7311455537712" lon="-3.89917240788996">
        <time>2024-03-12T04:14:23Z</time>
      </trkpt>
      <trkpt lat="40.7311809473997" lon="-3.8991505322466">
        <time>2024-03-12T04:14:23Z</time>
      </trkpt>
      <trkpt lat="40.7312026290262" lon="-3.89913110687964">
        <time>2024-03-12T04:14:23Z</time>
      </trkpt>
      <trkpt lat="40.7312359796647" lon="-3.89909972993713">
        <time>2024-03-12T04:14:23Z</time>
      </trkpt>
      <trkpt lat="40.7312576612829" lon="-3.89908030453785">
        <time>2024-03-12T04:14:23Z</time>
      </trkpt>
      <trkpt lat="40.7312910119078" lon="-3.89904892754436">
        <time>2024-03-12T04:14:23Z</time>
      </trkpt>
      <trkpt lat="40.73131692661" lon="-3.89901226946355">
        <time>2024-03-12T04:14:23Z</time>
      </trkpt>
      <trkpt lat="40.7313198248896" lon="-3.89900853673031">
        <time>2024-03-12T04:14:23Z</time>
      </trkpt>
      <trkpt lat="40.7313205665216" lon="-3.89900758157247">
        <time>2024-03-12T04:14:23Z</time>
      </trkpt>
      <trkpt lat="40.7313489970228" lon="-3.89898333243747">
        <time>2024-03-12T04:14:23Z</time>
      </trkpt>
      <trkpt lat="40.7313808035006" lon="-3.89894201670902">
        <time>2024-03-12T04:14:23Z</time>
      </trkpt>
      <trkpt lat="40.7313961301596" lon="-3.89892309779827">
        <time>2024-03-12T04:14:23Z</time>
      </trkpt>
      <trkpt lat="40.7314115551907" lon="-3.89890311440231">
        <time>2024-03-12T04:14:23Z</time>
      </trkpt>
      <trkpt lat="40.7314250798726" lon="-3.89888423043372">
        <time>2024-03-12T04:14:23Z</time>
      </trkpt>
      <trkpt lat="40.7314360915113" lon="-3.89886993110767">
        <time>2024-03-12T04:14:23Z</time>
      </trkpt>
      <trkpt lat="40.7314440718817" lon="-3.89885110869719">
        <time>2024-03-12T04:14:23Z</time>
      </trkpt>
      <trkpt lat="40.7314516925139" lon="-3.89883313408199">
        <time>2024-03-12T04:14:23Z</time>
      </trkpt>
      <trkpt lat="40.7314523460954" lon="-3.89883018231876">
        <time>2024-03-12T04:14:23Z</time>
      </trkpt>
      <trkpt lat="40.7314679632219" lon="-3.89879131310017">
        <time>2024-03-12T04:14:23Z</time>
      </trkpt>
      <trkpt lat="40.7314805140453" lon="-3.89873552741004">
        <time>2024-03-12T04:14:23Z</time>
      </trkpt>
      <trkpt lat="40.7314846377972" lon="-3.89871497740015">
        <time>2024-03-12T04:14:23Z</time>
      </trkpt>
      <trkpt lat="40.7314930359384" lon="-3.89867766891715">
        <time>2024-03-12T04:14:23Z</time>
      </trkpt>
      <trkpt lat="40.7315015610201" lon="-3.89863562523507">
        <time>2024-03-12T04:14:23Z</time>
      </trkpt>
      <trkpt lat="40.7315099591359" lon="-3.89859831673222">
        <time>2024-03-12T04:14:23Z</time>
      </trkpt>
      <trkpt lat="40.731513652705" lon="-3.89855780673235">
        <time>2024-03-12T04:14:23Z</time>
      </trkpt>
      <trkpt lat="40.7315130653694" lon="-3.89851753519398">
        <time>2024-03-12T04:14:23Z</time>
      </trkpt>
      <trkpt lat="40.7315132554388" lon="-3.89851545351563">
        <time>2024-03-12T04:14:23Z</time>
      </trkpt>
      <trkpt lat="40.7315167589102" lon="-3.89847702518726">
        <time>2024-03-12T04:14:23Z</time>
      </trkpt>
      <trkpt lat="40.7315115295585" lon="-3.89843130298328">
        <time>2024-03-12T04:14:23Z</time>
      </trkpt>
      <trkpt lat="40.7315101663986" lon="-3.89839232365859">
        <time>2024-03-12T04:14:23Z</time>
      </trkpt>
      <trkpt lat="40.7315040382737" lon="-3.89833857572998">
        <time>2024-03-12T04:14:23Z</time>
      </trkpt>
      <trkpt lat="40.7315021037723" lon="-3.89828040429143">
        <time>2024-03-12T04:14:23Z</time>
      </trkpt>
      <trkpt lat="40.7314959764867" lon="-3.89822665757486">
        <time>2024-03-12T04:14:23Z</time>
      </trkpt>
      <trkpt lat="40.7314903074929" lon="-3.89818335715174">
        <time>2024-03-12T04:14:23Z</time>
      </trkpt>
      <trkpt lat="40.7314841792704" lon="-3.89812960925655">
        <time>2024-03-12T04:14:23Z</time>
      </trkpt>
      <trkpt lat="40.7314785111408" lon="-3.89808630886077">
        <time>2024-03-12T04:14:23Z</time>
      </trkpt>
      <trkpt lat="40.7314572809514" lon="-3.89799744400782">
        <time>2024-03-12T04:14:23Z</time>
      </trkpt>
      <trkpt lat="40.7314025117194" lon="-3.89785683027257">
        <time>2024-03-12T04:14:23Z</time>
      </trkpt>
      <trkpt lat="40.731350941501" lon="-3.89764294630611">
        <time>2024-03-12T04:14:23Z</time>
      </trkpt>
      <trkpt lat="40.7313181919979" lon="-3.89730709090426">
        <time>2024-03-12T04:14:23Z</time>
      </trkpt>
      <trkpt lat="40.7313449531946" lon="-3.89715857007872">
        <time>2024-03-12T04:14:23Z</time>
      </trkpt>
      <trkpt lat="40.7313399275341" lon="-3.89708345593511">
        <time>2024-03-12T04:14:23Z</time>
      </trkpt>
      <trkpt lat="40.7313419668864" lon="-3.89686219349867">
        <time>2024-03-12T04:14:23Z</time>
      </trkpt>
      <trkpt lat="40.7313278628456" lon="-3.89669956436043">
        <time>2024-03-12T04:14:23Z</time>
      </trkpt>
      <trkpt lat="40.7313192360116" lon="-3.89665112136176">
        <time>2024-03-12T04:14:23Z</time>
      </trkpt>
      <trkpt lat="40.7312963031303" lon="-3.89661521459701">
        <time>2024-03-12T04:14:23Z</time>
      </trkpt>
      <trkpt lat="40.7312642775165" lon="-3.89661166350549">
        <time>2024-03-12T04:14:23Z</time>
      </trkpt>
      <trkpt lat="40.7312441214776" lon="-3.89660942854822">
        <time>2024-03-12T04:14:23Z</time>
      </trkpt>
      <trkpt lat="40.7311836937777" lon="-3.89664943990414">
        <time>2024-03-12T04:14:23Z</time>
      </trkpt>
      <trkpt lat="40.731161110499" lon="-3.8966574262607">
        <time>2024-03-12T04:14:23Z</time>
      </trkpt>
      <trkpt lat="40.7310997947339" lon="-3.89666489263357">
        <time>2024-03-12T04:14:23Z</time>
      </trkpt>
      <trkpt lat="40.7310395361043" lon="-3.89665224150861">
        <time>2024-03-12T04:14:23Z</time>
      </trkpt>
      <trkpt lat="40.7309366023018" lon="-3.8965667804355">
        <time>2024-03-12T04:14:23Z</time>
      </trkpt>
      <trkpt lat="40.7308923340615" lon="-3.89652509399475">
        <time>2024-03-12T04:14:23Z</time>
      </trkpt>
      <trkpt lat="40.7308105062972" lon="-3.89644785080312">
        <time>2024-03-12T04:14:23Z</time>
      </trkpt>
      <trkpt lat="40.7307606157602" lon="-3.89637612851777">
        <time>2024-03-12T04:14:23Z</time>
      </trkpt>
      <trkpt lat="40.7307233633414" lon="-3.89630102330228">
        <time>2024-03-12T04:14:23Z</time>
      </trkpt>
      <trkpt lat="40.7306805224493" lon="-3.89624952738328">
        <time>2024-03-12T04:14:23Z</time>
      </trkpt>
      <trkpt lat="40.7306142710796" lon="-3.89619653320878">
        <time>2024-03-12T04:14:23Z</time>
      </trkpt>
      <trkpt lat="40.7305434239699" lon="-3.89615531955579">
        <time>2024-03-12T04:14:23Z</time>
      </trkpt>
      <trkpt lat="40.7305317876941" lon="-3.89614568977382">
        <time>2024-03-12T04:14:23Z</time>
      </trkpt>
      <trkpt lat="40.7304745070581" lon="-3.89609755299933">
        <time>2024-03-12T04:14:23Z</time>
      </trkpt>
      <trkpt lat="40.73032083731" lon="-3.89594474224796">
        <time>2024-03-12T04:14:23Z</time>
      </trkpt>
      <trkpt lat="40.7303189613482" lon="-3.89594270393834">
        <time>2024-03-12T04:14:23Z</time>
      </trkpt>
      <trkpt lat="40.7302044642067" lon="-3.89583814258304">
        <time>2024-03-12T04:14:23Z</time>
      </trkpt>
      <trkpt lat="40.7301579833144" lon="-3.89579133535212">
        <time>2024-03-12T04:14:23Z</time>
      </trkpt>
      <trkpt lat="40.7301181216506" lon="-3.89576665369247">
        <time>2024-03-12T04:14:23Z</time>
      </trkpt>
      <trkpt lat="40.7300815319975" lon="-3.89573764220508">
        <time>2024-03-12T04:14:23Z</time>
      </trkpt>
      <trkpt lat="40.7300341568565" lon="-3.89572809635768">
        <time>2024-03-12T04:14:23Z</time>
      </trkpt>
      <trkpt lat="40.7300260767018" lon="-3.89572455382498">
        <time>2024-03-12T04:14:23Z</time>
      </trkpt>
      <trkpt lat="40.7299192552213" lon="-3.89567563504591">
        <time>2024-03-12T04:14:23Z</time>
      </trkpt>
      <trkpt lat="40.7298281812778" lon="-3.8956152874424">
        <time>2024-03-12T04:14:23Z</time>
      </trkpt>
      <trkpt lat="40.7296758309524" lon="-3.8952393691515">
        <time>2024-03-12T04:14:23Z</time>
      </trkpt>
      <trkpt lat="40.7295431015497" lon="-3.89481086924861">
        <time>2024-03-12T04:14:23Z</time>
      </trkpt>
      <trkpt lat="40.7295143128526" lon="-3.89468969627179">
        <time>2024-03-12T04:14:23Z</time>
      </trkpt>
      <trkpt lat="40.7295131132888" lon="-3.89468174613567">
        <time>2024-03-12T04:14:23Z</time>
      </trkpt>
      <trkpt lat="40.7294929686784" lon="-3.89453783418779">
        <time>2024-03-12T04:14:23Z</time>
      </trkpt>
      <trkpt lat="40.7294675533245" lon="-3.89444631130251">
        <time>2024-03-12T04:14:23Z</time>
      </trkpt>
      <trkpt lat="40.7294136806819" lon="-3.89430703995549">
        <time>2024-03-12T04:14:23Z</time>
      </trkpt>
      <trkpt lat="40.7292912017698" lon="-3.89406974722301">
        <time>2024-03-12T04:14:23Z</time>
      </trkpt>
      <trkpt lat="40.7292298016365" lon="-3.89397182225944">
        <time>2024-03-12T04:14:23Z</time>
      </trkpt>
      <trkpt lat="40.7291677299058" lon="-3.89384428390797">
        <time>2024-03-12T04:14:23Z</time>
      </trkpt>
      <trkpt lat="40.729138504448" lon="-3.89376774987235">
        <time>2024-03-12T04:14:23Z</time>
      </trkpt>
      <trkpt lat="40.7291006293826" lon="-3.89366812704528">
        <time>2024-03-12T04:14:23Z</time>
      </trkpt>
      <trkpt lat="40.7290430585943" lon="-3.89342459968954">
        <time>2024-03-12T04:14:23Z</time>
      </trkpt>
      <trkpt lat="40.7289872831456" lon="-3.89310033567724">
        <time>2024-03-12T04:14:23Z</time>
      </trkpt>
      <trkpt lat="40.7289516832192" lon="-3.89289286512052">
        <time>2024-03-12T04:14:23Z</time>
      </trkpt>
      <trkpt lat="40.7289287398383" lon="-3.89283098111747">
        <time>2024-03-12T04:14:23Z</time>
      </trkpt>
      <trkpt lat="40.7288487066374" lon="-3.89269609928908">
        <time>2024-03-12T04:14:23Z</time>
      </trkpt>
      <trkpt lat="40.7286485395247" lon="-3.89248619373011">
        <time>2024-03-12T04:14:23Z</time>
      </trkpt>
      <trkpt lat="40.7286149516246" lon="-3.89240285281261">
        <time>2024-03-12T04:14:23Z</time>
      </trkpt>
      <trkpt lat="40.7286000124318" lon="-3.89238927206947">
        <time>2024-03-12T04:14:23Z</time>
      </trkpt>
      <trkpt lat="40.7285925883303" lon="-3.89238242309936">
        <time>2024-03-12T04:14:23Z</time>
      </trkpt>
      <trkpt lat="40.7285530648785" lon="-3.89236768501581">
        <time>2024-03-12T04:14:23Z</time>
      </trkpt>
      <trkpt lat="40.7285265822568" lon="-3.89229746508158">
        <time>2024-03-12T04:14:23Z</time>
      </trkpt>
      <trkpt lat="40.7284884172095" lon="-3.89222353664512">
        <time>2024-03-12T04:14:23Z</time>
      </trkpt>
      <trkpt lat="40.7284173450884" lon="-3.8920946969661">
        <time>2024-03-12T04:14:23Z</time>
      </trkpt>
      <trkpt lat="40.7282554294912" lon="-3.89183083362538">
        <time>2024-03-12T04:14:23Z</time>
      </trkpt>
      <trkpt lat="40.7282209403498" lon="-3.89174748149799">
        <time>2024-03-12T04:14:23Z</time>
      </trkpt>
      <trkpt lat="40.7282148673444" lon="-3.89174065067544">
        <time>2024-03-12T04:14:23Z</time>
      </trkpt>
      <trkpt lat="40.7281807538911" lon="-3.89170194671279">
        <time>2024-03-12T04:14:23Z</time>
      </trkpt>
      <trkpt lat="40.728042069504" lon="-3.89157931073365">
        <time>2024-03-12T04:14:23Z</time>
      </trkpt>
      <trkpt lat="40.7279304625653" lon="-3.89144993165823">
        <time>2024-03-12T04:14:23Z</time>
      </trkpt>
      <trkpt lat="40.7278800471233" lon="-3.89138744567195">
        <time>2024-03-12T04:14:23Z</time>
      </trkpt>
      <trkpt lat="40.7277734160679" lon="-3.89125529164396">
        <time>2024-03-12T04:14:23Z</time>
      </trkpt>
      <trkpt lat="40.7276955186502" lon="-3.89115857240976">
        <time>2024-03-12T04:14:23Z</time>
      </trkpt>
      <trkpt lat="40.7276690184655" lon="-3.89112553614878">
        <time>2024-03-12T04:14:23Z</time>
      </trkpt>
      <trkpt lat="40.7273756669965" lon="-3.89073322105695">
        <time>2024-03-12T04:14:23Z</time>
      </trkpt>
      <trkpt lat="40.7272542877743" lon="-3.89058595217321">
        <time>2024-03-12T04:14:23Z</time>
      </trkpt>
      <trkpt lat="40.727153382446" lon="-3.89048217813067">
        <time>2024-03-12T04:14:23Z</time>
      </trkpt>
      <trkpt lat="40.727120224674" lon="-3.89044798793194">
        <time>2024-03-12T04:14:23Z</time>
      </trkpt>
      <trkpt lat="40.7269492120685" lon="-3.89031190008354">
        <time>2024-03-12T04:14:23Z</time>
      </trkpt>
      <trkpt lat="40.7266651692125" lon="-3.89008368044355">
        <time>2024-03-12T04:14:23Z</time>
      </trkpt>
      <trkpt lat="40.7265351282537" lon="-3.88997233648552">
        <time>2024-03-12T04:14:23Z</time>
      </trkpt>
      <trkpt lat="40.7264725683278" lon="-3.88994243216871">
        <time>2024-03-12T04:14:23Z</time>
      </trkpt>
      <trkpt lat="40.7263905615535" lon="-3.88984907070412">
        <time>2024-03-12T04:14:23Z</time>
      </trkpt>
      <trkpt lat="40.7261174671552" lon="-3.88949898348971">
        <time>2024-03-12T04:14:23Z</time>
      </trkpt>
      <trkpt lat="40.7260229935295" lon="-3.88938935565121">
        <time>2024-03-12T04:14:23Z</time>
      </trkpt>
      <trkpt lat="40.7259881656934" lon="-3.88941203919812">
        <time>2024-03-12T04:14:23Z</time>
      </trkpt>
      <trkpt lat="40.7258177339868" lon="-3.88916709192971">
        <time>2024-03-12T04:14:23Z</time>
      </trkpt>
      <trkpt lat="40.7257360714109" lon="-3.88905061693869">
        <time>2024-03-12T04:14:23Z</time>
      </trkpt>
      <trkpt lat="40.7256845082818" lon="-3.88893714290195">
        <time>2024-03-12T04:14:23Z</time>
      </trkpt>
      <trkpt lat="40.725623749714" lon="-3.8887796848063">
        <time>2024-03-12T04:14:23Z</time>
      </trkpt>
      <trkpt lat="40.7254561503509" lon="-3.88854302937876">
        <time>2024-03-12T04:14:23Z</time>
      </trkpt>
      <trkpt lat="40.7253113434381" lon="-3.88823774126629">
        <time>2024-03-12T04:14:23Z</time>
      </trkpt>
      <trkpt lat="40.7252384888756" lon="-3.88804770926847">
        <time>2024-03-12T04:14:23Z</time>
      </trkpt>
      <trkpt lat="40.7252192561941" lon="-3.88793808404271">
        <time>2024-03-12T04:14:23Z</time>
      </trkpt>
      <trkpt lat="40.7251712332748" lon="-3.8878804854712">
        <time>2024-03-12T04:14:23Z</time>
      </trkpt>
      <trkpt lat="40.725168055619" lon="-3.88770056867706">
        <time>2024-03-12T04:14:23Z</time>
      </trkpt>
      <trkpt lat="40.7252861956367" lon="-3.88687021717032">
        <time>2024-03-12T04:14:23Z</time>
      </trkpt>
      <trkpt lat="40.7252729843406" lon="-3.88666018779103">
        <time>2024-03-12T04:14:23Z</time>
      </trkpt>
      <trkpt lat="40.7252456053604" lon="-3.88636452997935">
        <time>2024-03-12T04:14:23Z</time>
      </trkpt>
      <trkpt lat="40.7252595971572" lon="-3.88602745033375">
        <time>2024-03-12T04:14:23Z</time>
      </trkpt>
      <trkpt lat="40.7252846455399" lon="-3.88573548585084">
        <time>2024-03-12T04:14:23Z</time>
      </trkpt>
      <trkpt lat="40.7253001103341" lon="-3.8855464995873">
        <time>2024-03-12T04:14:23Z</time>
      </trkpt>
      <trkpt lat="40.7253107319123" lon="-3.88545584834169">
        <time>2024-03-12T04:14:23Z</time>
      </trkpt>
    </trkseg>
  </trk>
</gpx>
